STARLINK-2476 (48134 NORAD) Tracking and Keplerian Element Data

This shows tracking and keplerian element data for the satellite.

Feedback or suggestion? Click here.




ElementValue
Catalog48134
NameSTARLINK-2476
Epoch Orbit179
Epoch Day136.75001157
Epoch Year2021
RAAN146.7272
Inclination53.0463
Eccentricity0.0001305
Argument of Perigee73.6452
Mean Anonmoly97.7035
Mean Motion15.55096064
Decay Rate-0.01090033
L11 48134U 21027AU 21136.75001157 -.01090033 00000-0 -17551-1 0 9999
L22 48134 53.0463 146.7272 0001305 73.6452 97.7035 15.55096064 1797

Live tracking and technical data element details for STARLINK-2476 (NORAD 48134). STARLINK-2476 can be tracked NOW for your location showing map with azimuth and elevation plus other details from your city location.

Track the satellite on the map from your city or location and see movement details for azimuth, elevation, latitude, longitude, range, height, and movement on the map or in text.







IsCatalogInMostPopularTable: catalog: 48134, numindb: 14
Update: records affected: 1



GetName: 48134 STARLINK-2476

Hit Count: updated at: Mon, 17 May 2021 15:36:34 GMT